Tucson, AZ

3:01 PM MST on February 20, 2018 (GMT -0700)
Tucson International

Weather History for KTUS - July, 2014

Change the Weather History Date:

Tuesday, July 1, 2014

  Actual Average Record
Temperature  
Mean Temperature 92 °F 88 °F  
Max Temperature 106 °F 102 °F 111 °F (1990)
Min Temperature 77 °F 73 °F 58 °F (1913)
Degree Days  
Heating Degree Days 0 0  
Month to date heating degree days 0 0  
Since 1 June heating degree days 0 0  
Since 1 July heating degree days 0 0  
Cooling Degree Days 27 23  
Month to date cooling degree days 27 23  
Year to date cooling degree days 1355 1119  
Since 1 June cooling degree days 752 617  
Growing Degree Days 42 (Base 50)    
Moisture  
Dew Point 35 °F    
Average Humidity 18    
Maximum Humidity 27    
Minimum Humidity 8    
Precipitation  
Precipitation 0.00 in 0.03 in 0.83 in (2016)
Month to date precipitation 0.00 0.03  
Year to date precipitation 0.61 3.30  
Sea Level Pressure  
Sea Level Pressure 29.73 in    
Wind  
Wind Speed 7 mph (West)    
Max Wind Speed 20 mph    
Max Gust Speed 30 mph    
Visibility 10 miles    
Events      
T = Trace of Precipitation, MM = Missing Value Source: NWS Daily Summary

Daily Weather History Graph

Daily Weather History Graph

Search for Another Location

Airport or City:

Trip Planner

Search our weather history database for the weather conditions in past years. The results will help you decide how hot, cold, wet, or windy it might be!

Date:

Astronomy

Jul. 01, 2014 Rise Set
Actual Time 5:21 AM MST 7:34 PM MST
Civil Twilight 4:52 AM MST 8:02 PM MST
Nautical Twilight 4:18 AM MST 8:36 PM MST
Astronomical Twilight 3:41 AM MST 9:14 PM MST
Moon 9:17 AM MST (7/1) 10:16 PM MST (7/1)
Length of Visible Light 15h 09m
Length of Day
14h 13m
Waxing Crescent, 17% of the Moon is Illuminated
Jul 1
Waxing Crescent
Jul 5
First Quarter
Jul 12
Full
Jul 18
Last Quarter
Jul 26
New

Hourly Weather History & Observations

Time (MST) Temp. Dew Point Humidity Pressure Visibility Wind Dir Wind Speed Gust Speed Precip Events Conditions
12:53 AM 88.0 °F 33.1 °F 14% 29.73 in 10.0 mi SSW 5.8 mph - N/A   Clear
1:53 AM 82.9 °F 37.0 °F 19% 29.73 in 10.0 mi South 8.1 mph - N/A   Clear
2:53 AM 81.0 °F 37.9 °F 21% 29.74 in 10.0 mi SE 8.1 mph - N/A   Clear
3:53 AM 79.0 °F 39.9 °F 25% 29.74 in 10.0 mi ESE 4.6 mph - N/A   Clear
4:53 AM 78.1 °F 41.0 °F 27% 29.76 in 10.0 mi SSE 5.8 mph - N/A   Clear
5:53 AM 80.1 °F 39.0 °F 23% 29.78 in 10.0 mi Calm Calm - N/A   Clear
6:53 AM 80.1 °F 39.0 °F 23% 29.79 in 10.0 mi Calm Calm - N/A   Clear
7:53 AM 89.1 °F 39.9 °F 18% 29.80 in 10.0 mi South 12.7 mph - N/A   Clear
8:53 AM 91.9 °F 39.9 °F 16% 29.80 in 10.0 mi South 8.1 mph - N/A   Clear
9:53 AM 95.0 °F 37.0 °F 13% 29.79 in 10.0 mi SSE 8.1 mph - N/A   Clear
10:53 AM 97.0 °F 35.1 °F 11% 29.78 in 10.0 mi North - - N/A   Clear
11:53 AM 99.0 °F 35.1 °F 11% 29.76 in 10.0 mi WNW 4.6 mph - N/A   Clear
12:53 PM 100.9 °F 34.0 °F 10% 29.73 in 10.0 mi WNW 4.6 mph - N/A   Clear
1:53 PM 102.9 °F 34.0 °F 9% 29.71 in 10.0 mi Variable 4.6 mph - N/A   Clear
2:53 PM 102.9 °F 33.1 °F 9% 29.69 in 10.0 mi NNW 10.4 mph - N/A   Clear
3:53 PM 105.1 °F 32.0 °F 8% 29.68 in 10.0 mi NNW 4.6 mph - N/A   Clear
4:53 PM 105.1 °F 32.0 °F 8% 29.66 in 10.0 mi North 11.5 mph 19.6 mph N/A   Clear
5:53 PM 104.0 °F 30.0 °F 8% 29.66 in 10.0 mi NW 8.1 mph - N/A   Clear
6:53 PM 102.9 °F 30.9 °F 8% 29.66 in 10.0 mi North 12.7 mph 20.7 mph N/A   Clear
7:53 PM 99.0 °F 30.9 °F 9% 29.67 in 10.0 mi NNW 11.5 mph - N/A   Clear
8:53 PM 96.1 °F 32.0 °F 10% 29.69 in 10.0 mi NW 5.8 mph - N/A   Clear
9:53 PM 93.0 °F 33.1 °F 12% 29.70 in 10.0 mi SW 5.8 mph - N/A   Clear
10:53 PM 91.0 °F 34.0 °F 13% 29.73 in 10.0 mi West 8.1 mph - N/A   Clear
11:53 PM 90.0 °F 39.0 °F 17% 29.73 in 10.0 mi West 9.2 mph - N/A   Clear